{"data":{"norad_id":57133,"epoch":"2026-05-25T04:30:29.161728Z","epoch_age_seconds":65720,"freshness":"FRESH","line1":"1 57133U 23090AJ  26145.18783752  .00000605  00000+0  31515-4 0  9991","line2":"2 57133  43.0032 191.2520 0001868 276.3810  83.6829 15.27576668162056","mean_motion":15.27576668,"eccentricity":0.0001868,"inclination_deg":43.0032,"raan_deg":191.252,"arg_perigee_deg":276.381,"mean_anomaly_deg":83.6829,"bstar":3.1515e-5,"rev_number":16205,"period_min":94.266954331355,"perigee_km":481.77740183798,"apogee_km":484.34074469096,"semimajor_km":6861.1960732645,"source":"CELESTRAK","updated_at":"2026-05-25T13:38:18.246092Z"}}